Theta_e
345 343 344 344 343 343 341 341 340 340 339 340 340 339 339 339 339 337 338 338 340 342 343 344 343 344 344 343 342 342 342 343 343 344 345 345 346 346 345 346 345 345 345 342 339 338 340 344 345 345 345 345 344 344 343 343 342 342 342 342 343 342 342 342 342 342 341 341 341 341 341 340 338 338 340 341 342 343 344 343 342 342 341 341 341
344 342 343 344 343 343 341 342 340 339 336 336 337 338 338 338 339 338 338 337 341 343 343 344 344 344 345 343 342 342 341 343 344 345 345 345 346 346 344 344 345 346 345 344 341 339 339 342 345 345 345 344 344 343 343 343 342 342 343 343 343 343 343 343 342 342 340 339 339 340 340 339 338 338 338 340 341 342 343 342 342 341 341 342 341
344 342 343 344 343 343 341 339 337 335 334 334 334 335 336 337 337 338 339 338 340 341 341 342 343 345 345 345 345 344 342 344 345 346 345 344 344 343 342 342 344 345 345 344 341 339 339 342 343 344 344 344 344 343 342 343 342 342 343 343 343 343 344 344 343 343 341 339 337 335 337 338 338 337 337 339 340 341 342 341 340 339 339 340 341
344 342 343 343 343 341 336 333 334 336 338 340 338 338 338 339 340 340 341 341 342 340 340 340 342 344 345 346 346 344 344 345 345 345 344 343 342 341 341 342 344 345 345 343 340 339 339 341 343 344 345 345 344 343 342 342 342 341 342 342 343 344 345 346 345 344 343 343 338 331 332 335 336 336 338 340 341 342 342 341 340 339 335 334 336
344 342 343 343 340 335 332 335 339 342 343 343 342 341 340 341 342 342 343 343 343 343 343 343 342 343 344 344 344 343 344 345 344 344 343 342 342 341 340 342 344 345 344 341 337 337 338 340 342 344 345 345 344 343 342 342 341 341 341 342 344 345 346 346 345 345 344 345 340 330 330 332 335 338 339 340 341 341 341 341 340 339 331 324 327
344 343 344 342 338 333 336 341 343 344 343 343 343 342 341 340 341 341 343 344 344 344 345 345 345 344 343 343 342 342 343 344 343 343 343 342 342 341 341 342 344 344 341 337 336 336 338 341 343 344 345 345 344 342 342 341 340 341 342 342 344 346 347 345 344 346 345 346 341 331 331 333 336 338 340 340 341 341 341 340 339 336 327 322 323
346 346 347 340 334 336 340 343 343 343 344 344 343 342 341 340 340 340 341 342 343 344 345 345 345 344 344 343 342 341 342 344 343 343 344 343 342 342 343 344 344 341 336 335 337 338 340 343 344 344 345 344 343 342 342 341 341 342 342 342 343 344 345 345 345 346 346 346 342 334 334 336 338 340 341 342 342 343 342 340 339 334 325 322 323
349 349 348 334 329 338 342 343 344 344 344 344 342 342 341 341 341 340 340 340 342 344 344 343 343 344 343 343 342 342 343 344 343 343 343 342 342 343 344 344 343 339 335 337 340 342 343 344 345 345 344 343 341 341 341 341 342 342 342 342 343 343 344 345 343 344 345 345 341 336 337 339 339 340 342 343 343 344 344 343 341 336 327 322 322
349 350 345 330 330 340 342 343 344 342 342 342 342 342 342 342 343 343 342 340 341 342 343 343 343 343 343 343 342 343 344 344 344 344 344 342 341 342 343 343 341 337 337 340 342 344 344 344 344 344 344 343 342 341 341 341 341 341 341 342 343 344 345 344 341 340 341 340 337 336 337 338 339 340 341 343 344 345 345 344 342 340 336 327 321
350 349 338 328 335 341 342 342 342 341 341 341 342 342 342 342 343 344 344 343 342 343 343 342 343 343 342 343 343 344 345 344 344 345 346 344 343 343 343 344 342 339 339 342 344 344 343 343 343 344 344 343 342 341 340 340 340 340 341 343 344 345 346 344 343 343 342 337 333 336 337 337 338 339 342 343 345 345 345 345 343 342 342 336 326
349 346 333 331 339 341 342 341 340 341 341 342 343 342 343 343 344 344 345 344 343 343 342 342 343 343 342 343 344 344 344 343 344 345 345 345 344 343 343 343 342 341 342 343 343 342 342 342 343 343 343 342 341 340 339 339 339 340 341 343 344 346 346 345 344 345 346 341 333 334 336 335 336 339 342 343 344 344 344 344 344 343 343 342 336
349 341 332 336 341 341 341 341 341 341 342 343 343 343 344 344 344 344 344 344 343 342 342 342 343 343 343 343 344 343 343 343 343 344 344 345 345 344 343 343 342 342 342 342 341 340 340 341 342 342 341 339 338 337 337 338 339 340 341 343 344 344 346 346 345 344 342 339 332 332 334 333 335 338 341 343 343 343 343 344 344 344 343 343 342
347 338 336 341 342 341 342 342 343 343 343 343 343 344 344 344 344 343 344 343 343 342 341 342 343 343 343 344 344 344 344 344 342 343 345 345 345 345 343 342 341 341 341 341 341 340 337 336 338 339 338 335 334 334 335 337 337 338 341 341 340 341 344 345 345 341 335 332 331 331 332 333 335 336 338 339 340 340 341 343 345 345 344 343 343
347 342 341 342 341 342 342 343 343 342 343 343 343 343 344 343 344 344 343 344 344 343 342 342 342 343 344 344 344 344 345 344 343 344 345 345 345 345 343 341 341 341 341 342 342 340 337 333 333 333 332 331 331 332 333 334 333 334 338 338 339 340 343 344 342 339 333 329 329 329 331 333 334 334 334 335 335 336 336 339 343 344 345 344 344
347 345 343 343 342 343 343 342 342 342 342 342 342 342 342 342 343 344 343 344 344 343 344 343 342 344 344 344 344 344 344 344 343 344 344 344 344 343 342 341 341 341 342 342 341 339 336 334 333 330 329 329 329 329 329 330 330 332 334 337 339 341 344 343 339 340 338 329 328 328 329 331 332 332 332 333 334 334 334 334 336 340 343 344 345
346 344 344 344 343 343 343 342 341 341 341 341 341 341 342 341 342 344 344 344 343 343 345 344 343 344 345 344 344 344 344 344 344 344 343 343 342 342 341 341 341 342 342 341 339 336 331 330 330 329 328 328 327 328 328 329 330 330 332 337 341 343 345 344 339 342 342 333 328 327 328 328 328 329 329 331 332 332 332 332 333 334 336 340 343
346 345 346 345 343 343 342 342 341 341 341 340 341 341 341 341 341 343 344 345 344 343 344 344 343 344 343 344 344 344 345 344 344 345 344 342 341 341 341 341 342 342 341 339 336 332 328 327 327 327 328 328 329 330 331 331 331 330 333 337 342 343 344 344 342 343 342 334 328 327 327 328 328 328 328 329 329 329 330 331 331 332 332 333 336
348 348 348 344 344 343 342 342 341 341 341 341 341 341 341 342 342 343 344 344 344 344 344 344 344 343 343 344 345 345 345 344 344 345 344 342 342 342 342 342 343 342 340 336 332 330 330 330 330 331 331 332 333 334 334 333 332 332 334 337 340 342 343 345 344 345 343 334 327 328 328 329 330 329 329 329 329 329 329 329 330 331 331 331 331
349 350 348 344 343 343 342 342 341 341 341 341 341 342 342 343 344 344 344 344 343 343 344 344 344 344 344 344 344 344 344 344 343 344 343 343 343 343 343 343 343 341 338 334 333 334 333 333 333 334 334 334 334 334 334 333 333 335 340 342 342 344 345 346 344 345 344 333 328 329 328 328 330 329 328 328 328 328 328 328 329 329 329 330 330
350 350 349 345 342 343 344 343 342 341 340 341 342 343 344 344 344 344 344 344 343 343 343 344 344 343 344 344 344 343 344 344 343 343 343 343 343 344 343 342 341 339 337 336 337 337 335 335 335 335 335 335 334 334 334 334 335 338 343 345 346 346 346 347 345 345 339 329 329 329 328 327 326 327 325 325 325 325 325 325 326 326 327 327 327
350 350 349 347 343 342 344 342 341 342 341 340 341 343 345 344 344 344 344 344 343 343 343 343 343 343 344 343 343 343 343 343 343 342 343 343 343 344 343 341 339 338 337 338 338 338 337 337 335 335 334 334 334 334 334 335 337 339 341 342 346 347 347 347 347 346 337 327 329 328 327 325 323 323 322 322 322 321 322 322 323 324 324 324 323
349 349 350 348 343 342 344 341 341 342 341 340 341 343 344 344 343 344 344 344 344 343 343 344 343 343 344 342 342 342 342 342 342 342 342 343 343 344 343 340 338 338 338 339 339 339 339 338 337 337 337 338 338 339 337 337 341 341 340 340 343 346 346 346 346 347 338 328 329 327 324 322 321 321 320 321 320 321 322 322 323 324 323 323 323
349 349 350 349 343 342 344 342 342 341 341 340 340 341 343 344 344 344 345 345 344 344 343 343 343 343 342 342 342 341 341 341 341 342 341 342 343 343 341 339 339 339 339 340 340 339 340 340 341 342 342 344 346 346 343 341 344 344 342 341 344 346 347 346 346 345 336 328 327 324 321 319 320 321 321 322 322 322 323 323 324 324 324 324 324
349 349 350 350 346 341 343 343 343 343 341 341 341 342 343 343 343 344 345 345 345 345 344 343 343 343 342 341 341 341 340 341 341 341 340 341 342 341 340 340 339 339 339 338 340 340 341 343 345 345 345 346 349 348 345 345 346 346 344 344 345 345 346 345 346 343 333 328 325 321 320 319 320 321 323 323 324 324 325 325 326 327 328 329 330
350 349 349 350 347 341 342 344 344 345 344 343 344 345 344 342 342 343 344 344 344 345 345 344 344 343 342 340 341 340 340 340 339 339 339 339 340 340 340 339 339 338 338 338 340 343 344 346 346 346 345 347 349 347 346 345 345 344 343 344 345 345 344 343 346 344 333 326 322 320 319 320 322 323 324 325 325 327 328 330 332 334 336 338 340
350 350 349 350 348 344 344 346 346 347 347 345 345 346 345 343 341 342 343 342 342 343 344 344 343 343 341 340 340 339 339 339 338 338 338 338 338 338 338 339 339 338 338 339 341 343 345 346 347 346 345 346 347 347 346 344 342 342 342 344 345 343 342 343 345 342 330 323 320 319 321 322 324 325 326 327 328 331 334 337 339 340 342 344 345
351 350 350 349 350 349 347 346 346 346 347 346 345 346 346 345 342 341 342 341 342 343 344 344 343 342 341 339 339 338 339 339 339 338 338 338 338 338 337 338 339 339 339 340 342 343 344 347 348 348 346 344 343 344 345 344 342 341 343 344 344 344 343 344 345 342 331 322 320 320 322 324 325 327 328 330 333 336 338 340 342 344 346 347 348
351 350 350 351 350 351 349 346 345 345 345 345 344 345 346 347 346 344 341 341 343 344 346 345 343 343 343 342 341 340 340 340 339 339 339 339 338 337 336 338 338 339 341 342 343 344 345 347 348 348 346 345 343 343 343 344 344 343 343 341 342 344 344 344 345 347 337 323 321 322 323 325 326 329 331 334 336 338 340 342 345 347 348 348 348
351 350 350 351 351 351 351 348 347 345 345 344 344 345 345 346 348 346 342 341 343 344 344 344 343 344 344 345 343 342 341 340 340 339 339 339 339 337 338 343 342 340 343 344 345 347 347 347 347 347 346 345 345 344 344 344 344 344 344 343 343 344 344 344 345 346 339 325 323 323 325 327 328 331 334 337 339 340 343 345 347 348 348 348 347
350 349 349 350 351 351 351 350 348 345 344 344 344 346 345 345 347 347 344 343 343 343 343 343 344 344 345 345 343 342 342 341 342 341 341 341 341 340 342 346 345 343 345 346 348 348 347 348 348 346 346 344 344 344 343 343 342 341 344 344 344 345 346 346 345 346 341 330 326 324 325 327 329 332 336 339 342 344 346 347 348 348 346 346 344
349 349 349 350 351 351 352 351 349 346 345 345 344 344 345 344 345 345 344 345 346 345 345 345 346 346 347 346 344 344 344 344 345 345 345 345 345 344 345 347 347 347 347 347 349 349 349 349 347 347 346 344 343 344 341 341 341 339 342 343 343 345 347 348 347 346 343 334 332 332 330 330 331 334 338 341 344 345 347 347 346 345 342 341 341
349 349 349 350 351 351 352 351 350 348 347 347 344 342 343 344 344 344 345 348 348 347 348 347 347 348 347 345 344 345 345 346 347 348 348 347 347 346 347 347 348 349 349 349 349 349 350 348 346 346 346 344 343 343 342 341 342 340 340 342 343 344 345 347 345 342 342 341 342 344 341 340 340 340 341 343 345 345 345 345 342 340 337 336 337
350 349 349 350 350 351 351 351 351 350 348 348 347 346 344 344 343 344 347 347 347 348 348 347 346 347 346 345 345 345 346 347 348 349 349 348 347 347 347 348 349 350 349 349 348 348 349 347 348 348 346 346 345 344 344 341 342 343 341 342 343 343 344 345 343 341 345 346 348 349 346 346 347 347 346 344 345 345 341 339 338 337 335 333 334
349 349 349 350 350 350 349 351 351 350 349 348 349 349 347 345 343 345 348 347 346 346 344 342 343 344 345 345 344 345 348 349 349 349 349 349 349 350 350 349 349 348 346 346 349 350 350 348 348 349 348 348 347 346 346 342 342 344 344 343 343 344 346 346 343 343 345 344 346 349 346 346 348 348 349 347 347 348 343 336 335 338 337 333 332
348 349 350 349 350 351 349 350 352 351 350 349 349 350 349 347 346 346 348 346 346 345 341 338 338 340 342 345 344 345 348 348 348 350 350 350 350 351 351 349 347 346 344 345 347 349 348 347 347 348 349 348 348 347 346 344 343 342 343 344 343 344 346 344 342 342 342 343 344 345 345 347 349 348 348 348 349 351 350 344 339 338 339 338 336
349 350 350 349 350 351 350 350 352 351 351 351 350 350 349 349 349 349 347 345 345 345 344 343 341 341 342 343 343 344 345 345 346 350 351 350 351 351 350 347 346 346 346 345 345 346 346 345 347 347 348 348 347 348 346 345 344 341 341 341 341 344 344 344 344 342 341 344 346 345 344 347 348 347 346 346 348 351 353 352 347 343 341 341 341
349 350 349 349 350 350 350 350 350 349 350 351 351 350 347 348 350 349 346 346 346 346 347 347 347 346 341 340 341 342 343 344 347 350 351 351 351 350 346 344 345 346 346 345 346 348 346 345 347 348 349 348 347 348 347 344 343 342 342 341 341 342 343 345 344 341 341 344 346 345 345 346 344 344 346 346 348 350 352 353 351 350 348 342 341
350 350 350 349 349 350 349 350 351 349 346 347 349 350 348 348 350 349 347 347 347 347 347 347 348 347 341 338 340 342 343 345 347 349 350 351 352 350 346 343 344 347 348 347 347 349 348 345 346 347 348 348 348 348 346 345 344 342 342 341 342 343 341 343 342 341 342 342 343 344 344 345 342 343 346 346 348 351 352 350 349 352 352 345 341
350 350 350 350 349 350 350 350 352 349 342 343 348 350 350 348 349 349 348 348 348 347 346 346 347 347 342 340 341 343 343 344 346 346 347 350 351 349 346 343 343 347 349 347 346 347 347 345 344 345 346 346 346 346 345 345 343 342 342 340 342 344 342 343 343 343 343 341 341 343 342 341 341 342 343 345 348 350 350 349 347 350 352 348 343
350 350 350 349 349 351 351 351 352 347 341 343 347 349 351 349 349 349 349 349 349 348 347 345 347 347 344 342 342 342 342 344 345 345 347 350 351 348 345 344 344 347 350 350 347 347 348 347 345 346 347 346 345 344 345 345 343 343 343 340 340 342 342 344 344 342 341 340 341 343 342 341 342 343 343 343 342 342 346 347 347 348 350 350 345
351 352 350 350 351 351 351 352 352 346 341 345 347 350 351 349 349 350 350 350 349 350 349 347 348 346 343 344 344 343 342 343 344 344 347 349 350 348 346 345 345 346 349 350 348 347 349 348 346 346 347 347 346 344 344 343 341 341 341 340 340 339 340 345 345 343 342 340 341 342 342 343 344 345 343 341 339 340 342 343 344 345 347 348 344
351 352 352 352 353 352 352 354 351 346 345 349 350 351 352 350 349 350 351 351 350 351 350 349 349 346 342 344 344 342 343 344 343 344 347 348 348 348 347 346 345 344 344 345 344 345 347 347 347 347 347 347 346 344 343 343 342 341 341 341 341 339 340 343 344 344 342 340 341 342 342 345 345 344 343 341 343 342 339 339 342 344 346 345 342
351 352 352 353 353 351 352 353 350 348 350 352 352 351 352 351 350 350 351 351 350 351 351 350 350 346 342 343 344 342 343 344 343 344 346 347 347 347 347 347 345 343 342 343 344 344 347 348 347 347 346 345 344 344 344 347 346 342 341 341 339 339 340 341 342 342 340 339 339 340 342 344 343 345 344 344 345 344 342 341 340 343 345 344 343
351 351 352 353 354 351 351 352 350 350 351 353 353 351 352 352 350 350 350 350 351 351 351 351 352 348 343 342 343 342 343 344 344 346 347 347 346 346 347 347 345 344 343 344 346 347 350 351 348 346 347 346 345 344 345 347 346 342 344 344 341 341 341 341 340 339 339 339 338 339 341 342 343 344 345 344 344 344 346 342 337 340 342 340 342
351 352 352 353 354 350 348 349 350 352 352 351 351 349 350 350 349 351 350 349 352 353 352 352 352 350 347 345 343 342 344 344 344 347 348 346 345 346 347 347 345 345 344 345 351 352 352 351 348 347 350 350 347 345 346 346 344 344 347 346 343 343 344 343 341 339 340 340 336 338 340 340 341 343 343 343 344 344 346 344 339 339 340 338 339
351 352 352 352 353 351 347 346 350 353 352 348 347 349 349 348 348 351 351 350 352 353 351 353 353 351 351 351 345 342 345 345 344 347 347 345 345 345 346 347 346 346 345 348 352 353 353 352 349 348 349 349 347 346 346 345 344 345 346 345 345 344 343 342 341 339 340 341 338 337 338 340 341 342 343 343 343 344 344 345 343 341 341 341 339
351 351 352 351 352 353 349 346 349 352 349 344 345 348 347 347 348 350 351 350 350 350 350 352 353 350 351 352 348 344 345 346 345 346 346 345 344 345 346 346 347 348 348 349 351 351 353 353 349 347 347 347 348 348 347 346 346 347 346 344 343 344 343 343 344 341 340 341 340 339 339 340 341 340 341 341 343 344 343 344 346 344 344 344 342
351 351 351 351 353 354 352 349 347 348 347 344 345 346 347 348 347 347 348 348 349 350 350 351 352 351 351 352 350 347 346 346 346 345 345 345 344 345 345 345 349 351 349 350 353 352 354 353 348 344 344 346 348 349 348 347 347 347 347 345 343 343 342 342 344 344 342 342 341 341 340 341 341 339 340 342 343 343 343 345 346 344 344 344 344
351 350 350 352 354 354 353 349 346 348 347 345 344 345 346 348 348 348 347 346 349 352 351 350 351 352 351 351 352 351 347 345 347 346 345 345 345 345 344 344 348 351 349 350 353 353 354 352 346 344 345 346 346 349 350 349 348 348 346 346 345 345 344 343 342 342 343 343 342 342 340 341 342 339 339 341 342 342 342 345 345 343 342 344 346
350 350 350 352 355 354 351 348 346 347 347 344 344 345 345 346 348 351 349 347 350 351 351 352 352 351 350 350 352 353 349 344 344 345 344 345 345 344 344 343 346 350 349 351 353 352 351 347 343 346 347 347 347 348 350 349 349 350 347 345 346 346 346 345 343 343 343 344 344 342 341 341 341 340 340 340 341 342 341 343 346 345 341 342 345
349 350 350 353 356 354 352 351 347 346 347 344 344 345 346 345 346 350 349 348 351 349 350 352 351 349 349 350 349 350 351 348 345 344 342 344 344 343 344 346 348 351 351 352 353 353 351 348 348 349 345 346 347 346 349 350 349 349 347 345 345 345 345 345 344 344 343 344 345 343 341 342 342 342 342 339 339 342 341 340 344 345 343 343 343
Wind_Speed
15 15 15 15 14 14 13 14 13 12 12 12 13 13 12 13 12 12 12 12 12 12 11 11 11 12 11 11 13 13 13 13 12 13 13 14 14 14 14 14 14 15 16 16 16 17 17 17 17 17 16 17 17 17 18 18 18 20 20 20 21 21 21 21 20 20 19 19 18 18 17 17 16 15 16 17 16 15 15 15 14 14 15 14 13
17 15 15 15 14 14 14 15 14 12 11 11 11 11 11 10 10 9 9 10 10 10 10 10 11 11 11 12 12 13 13 12 12 13 13 14 15 15 15 15 14 15 15 15 15 15 15 15 16 16 16 16 17 17 18 18 18 20 20 20 20 20 20 20 19 19 19 19 17 16 16 16 16 16 16 16 16 15 15 15 14 14 15 13 13
18 16 15 14 13 13 13 14 14 13 11 10 10 10 10 9 8 8 8 8 9 8 9 10 11 11 11 12 13 12 12 12 12 13 14 14 14 14 14 15 15 15 15 14 14 14 15 15 15 16 16 16 17 17 17 18 18 19 19 19 18 19 19 19 19 18 19 19 16 15 14 15 15 15 15 16 16 15 15 15 14 14 14 12 11
17 16 15 14 13 13 13 14 14 12 12 11 10 9 9 9 8 8 8 8 9 8 8 9 10 10 11 12 12 12 12 12 11 12 13 13 14 14 13 15 15 15 15 13 12 13 14 15 15 15 16 16 17 17 17 18 18 18 18 18 18 18 19 19 18 18 19 18 15 14 13 13 14 15 15 15 16 15 15 14 14 13 13 11 10
17 17 15 14 14 14 16 15 13 12 12 11 11 10 9 8 8 8 8 8 9 9 9 9 9 10 10 11 11 11 11 11 11 12 12 13 14 15 14 14 15 15 14 13 12 13 14 15 15 15 15 16 16 16 16 17 17 18 18 18 18 18 19 19 19 19 19 17 13 14 13 12 13 15 15 15 15 15 14 14 13 12 12 11 10
17 17 16 15 14 15 16 15 12 12 12 11 11 10 9 8 8 8 8 8 9 8 9 9 9 9 10 10 10 10 11 11 11 12 12 13 14 14 14 14 14 15 14 13 14 15 15 15 14 14 15 15 15 16 16 17 17 17 17 17 17 17 17 18 19 19 19 15 11 13 13 12 13 14 14 14 15 14 14 13 12 12 12 12 11
17 17 16 15 14 15 15 14 12 11 11 10 10 9 8 8 8 8 8 8 9 8 8 9 10 9 10 11 10 10 11 11 11 12 12 13 13 14 15 15 15 15 15 16 16 16 16 14 14 14 15 15 15 15 16 17 17 16 17 17 17 16 16 18 18 17 18 14 10 12 13 12 13 13 12 12 13 13 13 13 12 12 11 12 12
18 17 15 14 14 14 14 14 12 10 10 9 8 7 7 7 7 8 8 8 8 8 8 9 10 10 11 11 11 11 11 11 11 11 12 13 13 14 15 16 16 16 17 18 17 16 15 14 14 15 15 15 15 15 16 16 16 16 17 17 16 15 16 17 17 15 15 13 11 12 12 12 12 12 11 11 12 12 12 12 12 12 12 11 12
21 18 14 13 14 13 13 13 11 10 9 8 7 7 6 6 6 6 7 7 7 8 8 9 10 11 11 12 11 11 12 12 12 12 12 13 13 14 15 15 17 18 19 19 17 15 15 15 15 15 15 14 14 15 15 15 15 16 16 16 15 15 16 16 16 16 14 12 12 12 11 11 11 11 10 11 11 11 11 11 11 11 12 12 13
22 18 13 13 14 12 12 12 11 10 9 8 7 7 6 6 6 6 6 7 7 8 8 9 10 11 11 12 12 12 13 13 13 13 13 13 13 14 15 15 17 18 19 18 17 15 15 16 16 16 15 14 14 15 14 14 14 15 15 15 14 16 16 14 17 17 15 13 12 11 11 10 10 10 10 10 11 11 11 10 10 11 11 12 13
20 16 13 14 14 12 12 11 10 10 9 8 7 7 7 7 7 6 6 7 7 8 8 9 10 11 12 13 13 13 13 13 13 13 14 14 13 14 15 15 16 18 18 17 16 16 15 15 15 15 14 14 14 14 14 14 15 15 15 15 14 16 15 15 18 16 13 12 11 10 9 8 8 8 8 9 10 10 10 10 10 10 11 12 13
19 15 14 13 12 11 10 10 10 9 9 8 7 7 6 6 6 6 6 7 8 8 8 8 10 11 12 13 13 13 13 13 13 13 14 14 14 14 15 16 17 17 17 17 17 16 15 14 13 13 13 13 14 14 14 14 14 14 15 15 14 15 17 16 15 13 11 10 9 9 7 7 7 7 7 8 8 8 9 9 10 10 11 11 11
17 14 14 13 12 11 10 9 9 9 9 8 7 7 6 6 6 6 6 6 7 8 9 9 10 11 12 13 13 13 12 13 13 13 14 14 15 15 16 17 17 17 17 16 16 16 15 13 12 12 12 13 13 13 13 13 13 13 14 15 14 16 17 13 11 10 9 9 8 8 6 6 7 7 6 6 7 7 7 7 9 10 10 10 10
17 15 14 12 11 10 9 9 8 8 8 7 7 7 7 6 6 7 6 6 7 8 10 10 10 11 12 12 13 13 13 14 14 14 14 15 15 15 17 18 18 17 16 16 16 16 16 14 12 12 12 13 13 12 12 12 12 13 14 14 14 17 17 11 9 11 9 8 8 7 7 6 7 6 5 6 6 7 6 6 7 9 9 9 9
16 15 13 12 11 10 9 9 8 8 7 8 8 8 7 7 7 7 7 8 8 9 10 11 11 12 13 13 13 13 14 15 15 15 15 15 16 16 17 18 18 17 16 16 16 16 15 14 13 13 13 13 13 12 12 13 13 14 13 13 14 16 15 9 8 10 8 8 8 7 7 7 7 5 5 5 6 6 6 6 6 7 7 7 8
14 14 13 12 10 10 10 10 9 9 9 9 8 8 8 8 8 8 8 8 9 10 10 12 12 13 14 14 14 14 15 16 16 16 15 16 17 18 18 18 18 17 16 16 16 15 15 15 15 15 15 15 15 14 14 14 14 15 14 16 17 16 14 9 8 9 7 7 7 6 6 6 6 5 4 5 5 5 6 6 6 6 6 6 6
14 15 14 12 11 10 11 11 10 10 10 10 10 10 9 9 9 8 9 9 10 11 11 12 13 13 14 15 15 16 16 16 17 16 16 17 18 18 19 18 17 17 16 16 16 16 16 17 17 17 16 16 15 15 15 15 15 15 15 17 18 16 13 10 9 9 6 6 6 6 6 6 6 5 4 4 5 5 5 5 5 5 5 5 4
15 15 14 13 11 12 12 12 12 12 11 11 11 11 10 9 9 9 9 9 10 11 11 12 13 13 14 15 16 16 16 17 17 17 17 18 18 18 18 17 17 18 17 16 16 17 17 18 17 17 16 15 15 15 15 15 16 16 16 16 16 15 14 12 10 9 6 7 7 6 6 6 5 4 5 5 5 5 5 5 4 4 4 4 3
15 15 14 11 11 13 13 12 13 13 12 11 12 12 11 10 9 9 9 10 11 12 12 12 14 14 14 15 16 17 16 17 18 17 18 18 18 17 17 16 17 18 17 16 17 16 17 17 17 16 16 15 14 15 15 15 15 16 16 16 16 15 15 11 9 8 4 7 9 7 7 6 5 4 5 5 5 5 5 4 4 4 4 3 3
16 14 14 13 12 13 13 12 13 13 13 12 13 14 13 11 11 11 11 12 12 13 14 14 15 16 15 16 16 18 17 17 18 18 18 18 18 17 16 17 17 17 16 16 16 16 17 17 17 16 16 15 14 14 14 14 13 14 15 16 16 15 14 10 7 5 4 9 9 8 8 7 6 4 5 6 6 6 6 5 3 3 3 3 3
15 14 16 17 13 12 13 13 13 14 15 15 15 15 14 13 13 13 13 14 15 15 15 15 17 17 16 16 16 18 18 18 18 18 19 18 18 17 16 17 17 16 16 16 16 16 16 16 16 16 16 15 15 14 13 13 13 13 13 14 15 14 12 7 7 5 7 11 9 9 8 7 7 5 6 7 7 7 7 7 5 5 5 5 5
16 15 16 16 12 12 14 15 15 14 15 16 16 16 15 14 15 16 16 16 16 16 16 15 17 18 18 17 17 18 18 19 19 19 19 18 18 17 17 17 17 16 16 16 15 15 14 15 15 15 15 15 15 14 13 14 14 13 12 13 14 15 11 6 7 4 8 11 9 9 8 7 7 6 7 8 9 9 9 9 8 8 8 8 8
15 14 14 13 13 15 16 17 16 15 17 17 17 17 16 15 16 17 17 17 17 17 17 16 16 17 18 18 18 19 19 20 20 19 19 19 18 17 17 17 17 16 16 16 15 14 14 14 13 12 12 12 12 12 12 12 14 14 12 13 13 14 10 6 6 2 7 11 9 9 8 7 7 7 8 9 10 10 10 10 10 10 10 10 10
14 13 13 14 14 16 17 17 17 17 18 17 18 18 17 17 16 17 16 16 18 18 17 17 16 17 18 19 20 20 20 21 21 19 19 20 19 17 17 17 16 16 16 16 15 14 14 13 12 10 9 9 10 11 11 11 13 13 11 11 10 10 8 5 3 5 8 10 8 8 8 8 8 8 9 9 10 11 11 11 11 11 11 12 12
14 13 13 15 14 15 17 17 17 17 17 16 17 17 17 18 17 16 15 16 18 18 17 17 17 18 19 20 21 22 22 21 21 20 20 20 19 17 16 16 15 15 15 15 15 15 14 13 12 10 9 10 9 7 8 10 9 6 7 7 7 6 6 5 2 5 9 9 8 8 8 8 9 9 10 11 12 12 13 12 13 13 13 14 14
14 15 15 15 15 14 15 16 16 17 16 14 15 17 18 18 18 16 16 17 18 19 19 18 18 19 20 21 22 23 22 21 20 20 20 20 18 17 16 15 14 13 14 14 13 13 13 12 11 10 10 10 6 3 4 6 5 4 6 7 7 6 5 5 2 4 9 9 8 8 8 9 9 10 11 11 13 13 13 14 14 15 15 15 15
15 16 15 15 15 15 14 14 16 16 15 14 14 16 18 18 19 18 17 18 19 20 20 20 21 20 21 21 21 22 21 20 19 19 19 19 17 15 14 13 13 13 13 12 10 10 10 9 9 8 9 8 5 6 8 7 5 5 8 7 7 6 4 4 4 7 10 10 8 9 8 9 10 11 12 13 14 14 14 15 15 16 16 16 16
15 15 15 15 15 15 15 15 16 15 14 13 15 17 17 17 18 19 19 19 20 20 20 20 21 21 20 19 19 19 19 19 19 18 17 17 16 14 13 12 11 11 11 10 9 8 9 9 9 8 6 6 4 6 9 9 6 5 7 8 7 6 4 4 5 6 9 10 9 9 10 10 12 12 13 14 15 15 15 16 16 16 16 16 15
16 15 15 16 16 17 17 15 13 14 14 14 15 16 16 17 17 19 19 19 19 19 19 20 19 19 19 18 17 17 18 18 18 17 15 15 14 13 13 10 8 8 9 9 8 8 8 9 8 7 6 6 4 4 6 7 5 4 6 8 7 6 6 7 7 3 6 11 10 10 11 12 13 13 14 16 16 16 16 17 17 17 17 16 15
16 15 15 16 17 17 18 16 12 12 15 15 15 15 15 15 16 17 18 18 18 18 18 19 18 17 17 17 16 16 17 17 16 15 14 14 13 12 12 9 6 6 8 8 7 7 7 6 5 5 5 5 3 5 5 3 4 4 5 6 5 5 6 6 6 3 7 10 11 11 13 13 14 14 15 17 17 17 18 18 18 18 17 17 16
15 15 15 16 16 17 19 19 14 12 14 15 15 15 15 15 15 17 18 18 17 17 16 14 15 16 16 16 15 15 15 15 14 14 13 13 13 12 11 10 7 7 7 6 4 5 4 4 6 5 5 5 2 4 5 4 5 5 5 5 4 3 5 5 7 5 6 9 11 13 15 16 16 16 17 17 18 19 19 19 19 19 19 18 17
15 15 14 16 17 17 19 19 17 15 15 16 16 15 16 16 17 18 17 16 16 16 14 11 13 15 15 16 15 14 13 13 13 11 10 10 11 11 11 10 7 7 7 5 4 5 4 3 6 6 7 8 4 4 5 4 3 3 5 5 4 3 4 6 7 4 5 9 11 12 13 15 15 17 18 18 18 19 20 20 20 20 20 19 18
15 15 15 17 18 18 18 18 18 18 16 17 16 14 14 16 17 18 16 15 15 14 12 13 15 16 15 14 14 14 14 12 12 10 8 8 9 9 10 9 6 6 7 7 6 6 6 3 4 5 7 8 5 3 4 4 3 4 5 5 4 4 5 7 6 4 4 8 9 7 9 13 13 14 16 18 20 21 20 19 20 21 21 20 19
15 15 16 17 18 16 16 18 19 18 17 17 16 14 13 13 16 17 14 14 14 12 14 16 17 18 17 16 16 17 15 14 13 11 9 8 8 8 8 8 7 7 7 9 8 6 5 4 3 5 6 7 4 2 4 4 3 4 6 5 3 3 4 5 5 4 3 2 5 4 6 12 12 11 13 15 17 20 21 20 20 21 21 21 20
15 16 16 16 16 16 16 18 19 17 17 16 16 15 14 14 14 15 15 14 14 13 14 15 16 17 17 16 16 16 15 15 14 12 11 9 9 9 8 8 9 9 8 8 8 6 5 5 4 5 6 6 6 3 4 5 2 2 6 5 4 5 5 4 6 6 5 3 4 6 9 10 8 9 11 13 14 15 18 19 20 21 21 21 21
16 16 16 16 16 16 16 18 18 18 18 17 16 15 15 16 15 14 15 15 14 13 13 13 14 15 15 15 14 15 14 14 14 13 12 9 8 9 9 9 9 10 10 9 9 6 5 6 7 7 7 6 7 5 4 4 4 2 4 4 5 8 5 4 6 7 5 5 3 6 9 6 5 8 11 13 12 11 13 15 17 19 21 21 21
17 17 16 16 16 17 16 17 17 18 18 17 17 15 15 17 16 15 15 15 14 14 13 13 12 12 14 15 13 14 13 13 14 14 13 10 8 8 8 9 9 9 10 9 9 7 5 7 8 8 8 6 7 7 3 2 3 3 5 5 3 4 3 2 6 6 5 7 5 5 6 3 6 7 8 10 9 9 11 12 13 16 18 20 21
17 16 16 16 16 17 17 17 17 16 18 19 17 15 15 17 17 16 17 16 14 14 15 15 14 12 13 14 13 13 12 12 14 13 12 11 9 8 7 9 10 9 9 8 8 7 5 7 8 7 7 6 8 7 3 1 2 4 5 5 3 3 3 5 8 5 5 9 5 4 5 2 6 5 5 7 9 9 10 11 11 13 15 17 20
17 16 17 17 16 17 17 18 16 16 17 18 18 17 15 15 15 17 17 15 14 12 12 13 13 12 13 13 13 12 12 12 12 12 12 11 9 8 7 8 9 8 7 6 6 7 6 6 7 7 6 7 9 8 4 3 3 6 6 4 5 7 4 4 7 4 5 7 4 6 6 3 4 6 6 9 11 10 9 10 10 11 12 14 17
18 18 18 17 18 18 18 17 16 16 18 17 18 17 15 14 13 15 15 13 13 10 9 11 10 11 12 12 12 12 12 11 10 10 10 9 8 7 7 7 7 7 7 5 5 6 6 6 6 7 8 9 9 6 3 3 3 6 7 4 4 7 4 5 6 5 7 6 5 8 5 3 4 6 7 11 13 11 8 7 8 10 10 10 15
18 19 18 17 18 18 18 17 15 16 17 17 16 15 14 14 13 12 12 12 13 10 9 10 10 10 12 11 11 12 11 10 9 9 9 8 7 7 7 7 6 7 6 4 4 5 5 4 5 6 7 8 7 3 2 3 6 5 6 6 5 5 5 9 10 6 7 5 7 9 3 1 5 6 8 12 14 11 8 7 9 10 10 11 15
20 19 19 18 17 17 17 16 15 15 16 16 15 13 13 13 13 11 11 11 13 12 8 8 9 11 12 12 11 11 10 10 9 9 9 9 7 7 7 6 6 6 4 4 4 4 4 4 5 6 7 7 5 3 6 6 6 5 6 7 5 3 3 5 8 7 7 5 6 6 3 5 4 6 7 11 11 9 10 10 10 10 10 13 17
20 19 19 19 18 18 18 16 15 15 15 15 14 14 13 13 13 12 12 12 11 12 9 6 8 9 11 12 10 11 10 9 9 9 8 8 8 7 7 6 5 5 4 4 4 4 4 3 5 7 8 8 5 4 3 1 2 6 8 8 6 3 2 2 5 7 7 6 7 5 5 8 3 7 3 6 8 7 11 14 11 9 10 13 16
19 19 19 20 19 19 19 17 16 15 14 14 14 14 15 14 14 13 13 13 11 12 11 7 7 9 10 10 10 10 10 10 10 9 7 8 8 8 7 6 5 5 4 5 5 5 4 4 5 7 7 7 5 4 2 2 4 8 6 4 5 4 2 2 4 7 5 4 7 6 6 7 3 5 5 1 5 5 11 15 12 8 9 12 14
20 20 20 19 19 19 19 18 17 15 14 14 14 15 15 16 18 14 12 14 12 11 11 9 8 9 8 8 9 10 10 10 10 9 7 7 8 8 7 6 6 6 5 6 6 4 5 4 3 6 5 6 5 4 3 1 5 7 4 5 5 3 3 5 4 7 5 3 4 4 6 7 5 6 5 1 4 6 9 11 11 9 8 11 12
20 20 20 19 18 18 18 18 18 16 15 15 14 14 14 15 16 14 12 13 12 11 11 10 8 8 8 8 8 9 9 9 9 8 8 7 7 6 7 6 6 6 5 6 5 3 5 4 1 3 4 5 7 6 4 3 4 6 7 6 5 3 5 7 5 5 4 5 5 3 3 7 7 7 5 3 4 5 5 8 9 8 10 12 13
20 20 19 19 18 18 18 18 19 17 15 15 14 14 14 14 13 13 13 12 11 11 11 10 8 8 9 8 7 8 8 8 9 8 7 8 7 6 6 6 6 6 4 4 5 4 4 4 2 3 5 7 8 8 7 5 3 4 5 4 4 3 3 6 6 3 4 5 5 5 6 5 5 5 2 3 4 3 3 6 8 8 11 13 13
20 20 20 19 19 20 19 19 18 17 16 15 14 14 13 14 14 14 13 12 12 11 10 11 9 7 7 8 7 7 7 7 8 7 7 7 7 7 7 6 6 6 5 4 4 5 5 3 3 3 5 8 9 8 8 6 3 3 7 8 5 3 2 3 4 3 4 5 6 7 7 6 5 6 4 5 5 1 1 2 5 8 10 10 11
20 20 20 21 20 20 20 19 18 16 16 16 15 14 13 13 14 12 11 12 12 11 9 11 11 8 8 8 7 8 8 8 8 7 8 7 7 7 7 7 7 6 6 6 3 3 5 3 3 4 5 7 7 6 6 6 6 3 5 7 6 4 3 2 3 2 3 2 3 4 5 4 6 5 5 4 2 1 1 1 3 7 10 9 9
21 20 21 21 21 20 20 19 18 16 16 16 15 14 13 14 14 12 12 12 13 12 10 10 12 11 11 10 10 9 8 9 8 8 8 7 7 7 7 8 7 5 6 6 4 2 2 3 3 3 5 5 6 6 5 5 7 6 3 4 6 6 3 2 3 3 2 1 2 2 4 4 5 3 3 3 1 1 2 3 1 6 9 8 8
21 21 21 22 22 21 20 20 18 17 16 16 16 15 14 13 14 13 13 13 14 14 12 12 12 12 11 11 11 10 8 8 8 8 8 8 8 8 7 7 6 6 6 6 5 4 3 3 2 2 3 4 5 7 6 3 4 6 4 2 3 4 3 3 2 1 2 1 2 3 5 4 3 3 2 3 1 3 3 0 1 6 9 9 11
Wind_Direction
131 130 122 120 118 114 112 108 111 116 112 109 107 106 106 105 107 107 107 105 102 101 102 105 105 99 94 94 97 103 107 104 102 100 100 100 99 103 103 99 98 96 95 94 95 98 101 101 101 99 97 97 97 97 96 95 95 95 95 94 93 93 92 89 87 84 81 78 76 76 77 76 75 74 71 70 69 70 71 71 70 69 69 67 65
134 131 123 123 122 119 113 108 108 110 107 105 106 103 102 102 104 105 107 107 105 107 111 112 109 103 99 97 96 99 103 103 104 104 102 100 101 107 109 107 106 101 99 98 99 102 104 103 100 98 97 98 99 99 99 98 96 97 97 95 93 91 90 88 87 85 80 76 72 71 73 75 74 73 72 71 69 68 68 69 69 68 67 65 63
134 130 126 126 123 118 112 110 110 111 113 111 108 106 107 108 108 109 109 110 112 117 117 115 112 106 105 103 100 99 101 104 107 108 106 106 106 105 106 111 111 105 102 100 102 105 106 105 101 98 98 99 100 101 100 98 97 97 98 96 92 89 87 84 83 83 80 74 67 66 71 72 73 75 74 73 71 70 70 69 68 67 66 65 64
132 126 126 126 122 118 114 111 112 117 116 112 109 107 111 115 115 115 114 112 116 123 122 119 116 111 110 108 105 105 106 109 111 110 111 112 109 103 102 107 109 106 103 101 103 107 108 106 103 99 98 99 99 100 100 98 97 97 96 94 91 88 86 81 77 76 75 72 61 61 70 71 74 77 75 73 71 70 71 71 69 68 65 63 64
130 125 125 122 119 117 116 115 119 124 118 117 114 110 113 121 124 125 126 121 122 125 126 124 121 119 117 115 112 114 115 118 119 116 116 113 109 108 107 108 110 107 104 104 107 110 109 106 103 99 98 99 99 100 100 98 96 96 93 90 88 85 86 83 79 78 77 76 64 63 70 72 75 76 74 72 73 71 70 71 70 67 62 59 63
127 125 125 118 117 118 119 121 125 124 121 123 117 118 125 133 138 139 138 132 132 131 132 129 123 124 123 122 121 121 123 127 127 122 118 113 113 115 113 113 111 108 109 110 112 113 111 108 105 102 101 100 100 100 100 100 98 96 93 90 87 83 84 82 82 84 83 80 66 67 72 73 74 73 73 74 75 73 71 70 69 65 61 61 64
125 125 124 117 119 123 122 122 123 121 120 121 117 123 130 137 145 146 145 140 141 140 142 137 130 128 127 130 131 128 129 132 131 125 121 119 121 120 118 115 110 108 111 113 115 115 113 110 105 103 103 103 102 102 102 101 100 96 93 89 87 85 84 83 86 88 86 84 72 70 73 73 74 73 72 74 76 75 74 71 67 63 61 63 63
124 121 124 121 122 127 125 124 123 121 120 120 121 126 131 139 143 144 145 145 149 148 148 143 139 136 132 135 136 135 137 139 135 129 126 124 123 120 119 117 112 110 112 115 116 115 111 105 103 105 104 103 102 102 102 102 101 96 92 89 88 87 84 84 88 87 87 90 80 73 75 74 75 76 75 74 76 77 75 72 68 63 58 60 62
121 121 128 121 122 129 125 124 123 123 125 127 133 138 143 146 146 147 147 151 156 154 155 151 147 144 138 137 139 140 143 144 138 134 130 126 123 122 123 121 117 114 115 118 117 113 107 103 105 108 107 105 103 103 104 103 100 96 93 91 91 85 80 81 82 77 77 80 73 71 75 77 77 80 79 76 75 75 73 71 70 66 60 58 61
115 124 130 120 124 131 125 125 125 127 131 135 142 147 150 150 150 151 153 157 159 160 161 158 152 149 144 139 142 146 147 147 142 138 133 128 126 127 128 125 120 118 120 120 118 114 107 105 106 107 107 106 105 104 105 104 102 98 95 91 86 80 77 78 80 70 61 66 69 69 71 76 81 82 81 77 74 73 72 72 71 68 64 60 61
116 126 122 118 125 128 125 125 125 128 131 135 140 145 148 146 146 147 152 154 157 164 164 158 152 152 151 145 146 149 148 146 143 140 133 130 131 131 130 126 123 122 122 122 120 116 109 106 105 105 106 107 106 105 105 105 103 101 98 92 85 83 78 74 80 80 72 68 66 70 72 77 84 83 82 80 77 76 75 73 72 70 66 63 62
124 126 115 114 122 123 122 122 125 127 129 133 137 144 142 138 139 140 150 154 158 163 161 155 149 152 154 150 150 149 145 142 142 142 134 133 135 133 132 130 127 124 124 123 120 115 112 111 110 110 110 109 108 106 104 104 104 103 99 95 93 89 78 69 80 96 99 79 60 67 74 79 85 85 83 82 80 78 76 72 72 70 66 64 63
123 120 114 116 120 118 117 117 121 123 128 132 136 138 130 133 138 145 156 156 157 158 159 154 146 149 154 153 152 148 144 142 144 141 136 135 136 135 136 135 130 126 124 121 117 113 112 115 119 118 114 112 109 107 106 105 103 102 100 97 95 87 77 76 84 86 87 78 61 64 73 79 82 79 76 77 77 74 74 71 72 71 65 64 64
119 114 112 115 116 115 112 109 111 118 125 128 131 127 126 137 142 151 156 153 154 155 157 153 148 149 153 153 150 147 145 144 142 138 136 136 136 137 138 136 131 126 123 117 114 111 111 116 121 119 116 114 111 109 108 106 104 102 104 99 91 84 79 80 81 73 70 74 69 67 75 78 75 69 64 68 70 68 71 70 71 73 68 65 64
114 108 108 112 112 113 108 103 106 114 120 123 127 127 133 142 145 150 148 151 155 152 151 149 149 148 148 149 147 146 143 142 140 137 138 136 136 138 137 134 131 125 121 118 114 110 111 115 116 115 115 114 111 110 108 105 102 99 103 101 93 90 90 82 74 76 65 61 67 72 75 74 72 65 59 62 62 60 62 64 67 70 70 66 64
109 104 108 110 111 113 107 103 109 115 120 123 124 126 132 136 141 146 145 150 151 149 148 144 148 147 146 146 143 142 141 141 140 138 138 135 135 136 135 134 132 124 120 117 110 105 107 110 110 112 112 111 109 107 105 101 99 96 99 101 94 92 92 79 66 80 74 55 55 60 65 64 65 60 61 62 55 53 49 53 58 61 65 65 64
109 109 112 113 115 111 104 103 108 114 117 118 119 122 126 126 133 140 142 144 144 144 143 142 147 147 147 147 143 139 139 140 138 136 134 133 134 134 134 134 130 120 117 113 107 106 106 107 108 110 109 107 106 103 101 99 97 96 99 102 99 98 95 82 70 73 67 47 40 41 49 52 53 52 58 61 53 47 43 43 45 48 52 55 56
112 110 110 112 113 105 102 106 107 111 113 114 115 117 119 121 127 134 137 137 139 140 140 142 141 140 144 145 140 135 136 137 134 133 131 132 132 132 133 133 126 118 117 114 111 109 106 106 107 107 105 103 101 99 98 98 98 95 97 98 96 95 89 83 76 70 38 23 35 33 34 36 36 43 49 53 53 45 39 36 31 33 35 39 35
112 106 106 106 108 104 105 108 108 112 114 110 109 110 111 118 124 126 128 130 135 137 137 137 133 134 141 142 135 133 134 132 131 131 129 130 130 129 130 128 121 117 118 116 113 109 106 106 105 104 102 100 98 98 98 99 98 94 93 88 85 84 82 77 72 79 30 15 31 28 27 27 24 32 43 45 48 43 34 29 18 17 16 15 11
109 107 104 100 103 106 109 113 112 115 114 109 108 107 108 114 118 119 121 125 130 130 130 131 132 135 137 135 132 132 131 127 128 129 128 128 127 127 127 124 120 119 119 117 114 109 108 106 104 104 101 100 97 97 98 98 95 93 93 86 82 79 82 76 66 77 16 21 27 23 24 23 28 34 43 50 50 45 35 31 22 16 12 6 4
108 110 105 104 110 108 110 116 116 114 111 108 107 106 106 108 111 116 119 122 125 125 126 128 132 135 132 131 132 132 130 128 127 128 129 127 126 126 125 122 120 121 120 116 113 110 110 109 107 105 103 102 97 94 93 94 90 90 91 89 85 77 83 75 51 37 9 24 21 18 25 21 30 37 47 55 51 48 44 43 44 45 38 33 32
111 110 106 109 112 108 110 115 114 110 108 105 103 104 104 106 108 111 116 121 123 124 125 127 130 132 130 130 131 130 131 129 127 128 128 126 124 124 123 122 122 121 118 115 114 112 111 109 107 105 105 102 96 90 87 88 82 80 77 78 82 80 91 74 47 26 356 18 17 17 26 29 40 46 54 58 53 52 51 51 50 49 47 46 44
116 112 113 113 106 108 114 116 114 109 107 104 101 102 104 106 108 111 116 120 122 124 128 131 131 129 129 129 128 129 132 129 127 127 126 124 123 123 122 121 121 119 116 116 115 113 109 106 105 106 107 99 86 80 85 86 75 70 64 61 67 71 82 63 40 334 351 14 19 24 31 42 55 59 58 58 56 54 53 52 50 48 47 50 49
124 116 119 119 111 111 114 116 115 110 106 105 102 100 101 103 107 112 117 120 121 123 127 130 128 125 127 128 128 130 130 128 128 127 123 122 122 121 119 119 120 118 117 117 114 110 106 102 97 94 99 92 76 67 71 68 57 56 57 56 59 63 75 71 9 327 4 16 17 34 44 53 60 60 58 57 56 54 54 53 51 51 50 51 50
129 124 122 120 117 113 113 117 118 111 108 111 110 104 101 101 103 109 115 119 122 123 123 124 124 122 123 127 131 132 130 127 126 125 122 122 122 120 119 120 120 120 120 119 115 109 104 99 92 87 85 77 72 67 57 51 52 67 79 74 75 71 70 77 20 340 12 15 26 47 54 59 62 58 55 54 55 55 54 54 52 51 48 48 48
129 129 127 123 121 115 112 117 117 115 116 118 117 112 106 102 102 107 114 119 120 122 121 121 122 122 123 128 131 132 129 127 126 127 125 124 123 119 119 121 122 124 122 121 119 116 109 98 89 84 79 70 70 117 104 76 83 108 100 84 80 77 60 61 14 355 26 24 37 56 59 61 60 55 54 53 54 54 52 51 51 48 45 44 43
132 130 128 125 122 119 115 117 118 120 121 119 120 117 110 106 107 108 114 121 120 120 121 122 123 122 123 125 128 130 128 128 130 131 130 128 126 123 123 125 126 127 121 117 116 116 110 94 80 69 75 82 77 103 117 119 102 78 91 95 91 85 63 58 15 1 28 37 45 57 61 60 57 54 53 54 53 51 49 48 49 46 42 38 34
135 132 128 126 124 124 121 118 120 122 120 119 122 120 117 118 115 111 113 119 119 120 122 123 124 122 123 124 126 128 126 128 130 131 132 131 129 128 126 122 124 125 117 110 101 97 93 89 82 65 81 109 92 81 94 108 106 70 83 91 93 94 68 64 47 358 15 39 48 56 59 56 55 54 52 52 50 48 47 47 46 40 34 28 23
133 133 132 133 132 131 124 118 120 118 115 116 121 124 125 127 122 116 115 116 117 120 123 124 126 126 127 131 132 130 128 129 129 131 133 131 130 129 122 118 118 116 112 104 93 85 83 82 85 86 105 113 113 104 84 95 110 80 71 68 75 87 66 67 72 9 9 41 49 51 54 53 52 52 51 50 47 47 46 42 37 31 26 20 15
132 134 134 136 135 133 128 122 121 118 117 118 126 133 131 126 124 124 122 116 116 121 124 123 125 125 125 127 130 128 127 129 130 130 132 130 129 122 114 117 116 108 106 98 85 85 83 74 86 105 113 101 101 115 92 89 111 98 88 76 75 71 49 60 77 38 10 35 49 47 49 51 49 48 47 47 47 45 41 34 29 24 21 17 13
135 136 134 137 137 135 131 129 130 125 121 123 131 137 131 125 125 128 124 119 118 119 120 126 128 124 121 122 123 123 124 128 129 126 128 125 123 119 113 114 117 114 109 100 93 98 108 136 142 152 141 119 111 125 108 76 85 97 102 85 81 75 41 61 95 80 20 29 53 49 46 48 46 45 43 45 45 41 36 29 25 23 21 19 18
136 136 136 138 136 134 132 132 134 130 127 129 130 129 125 125 126 127 126 125 125 117 119 135 133 120 116 118 118 120 120 124 129 128 128 127 128 127 121 119 122 120 116 128 145 115 112 147 140 148 145 122 104 132 125 92 91 108 112 95 83 93 59 68 99 99 12 19 43 36 34 41 39 39 38 41 42 39 34 29 27 27 26 26 25
136 137 139 135 131 135 134 130 130 129 131 131 129 126 124 125 129 130 127 125 123 121 138 150 138 126 123 125 125 130 132 134 141 142 137 131 126 122 121 124 129 130 134 140 134 110 105 103 101 116 126 105 79 102 107 106 100 80 110 112 87 86 69 80 98 84 30 23 34 14 14 32 27 26 32 38 42 39 35 33 34 34 33 34 33
137 139 141 134 131 136 133 129 129 129 133 135 133 132 129 130 132 130 124 123 124 136 154 153 144 140 141 145 146 145 147 148 145 139 136 133 130 127 130 138 138 134 140 134 117 104 113 129 114 102 110 101 82 72 86 102 88 79 114 118 109 109 70 92 107 95 115 53 37 15 25 34 16 18 36 35 36 35 33 35 38 40 39 39 40
139 141 139 135 134 135 133 133 133 134 138 137 133 133 138 139 133 131 133 135 137 143 144 141 140 140 142 148 150 148 148 149 145 139 139 141 141 140 142 147 141 127 123 123 116 103 98 114 108 95 108 111 107 93 79 92 92 118 128 112 105 112 92 98 121 125 128 109 54 34 48 49 15 22 42 32 27 27 28 32 36 40 42 41 43
142 142 139 137 136 137 139 138 138 139 137 135 136 142 150 145 134 134 138 137 137 136 133 135 136 138 144 148 147 146 146 147 142 139 138 137 142 146 146 140 134 127 120 113 108 95 85 103 105 99 100 101 108 103 73 84 97 117 138 132 99 99 102 80 113 138 101 102 119 38 47 60 24 34 45 32 24 23 24 27 30 35 38 40 44
143 143 141 140 140 138 140 139 141 143 141 141 142 143 147 140 134 138 138 137 141 140 139 142 140 145 152 150 148 148 147 147 140 137 138 138 142 143 142 134 127 122 115 111 103 86 83 102 107 104 95 92 98 88 70 101 120 121 125 135 98 89 152 114 118 149 95 111 148 49 53 51 29 47 57 35 22 31 35 30 27 29 31 35 40
143 145 143 142 141 140 142 141 141 146 147 147 141 134 138 137 138 146 147 149 155 152 151 152 150 155 158 152 151 151 150 149 141 138 139 139 140 137 136 135 131 122 113 115 106 91 89 100 110 109 98 99 92 76 64 58 133 145 137 145 129 101 162 151 135 151 99 105 129 99 108 92 45 61 78 50 37 47 44 30 29 29 27 32 37
146 146 144 143 143 144 146 145 143 148 149 146 142 137 135 137 143 148 150 154 155 150 149 153 154 155 158 158 155 152 152 152 146 143 139 132 135 138 133 130 133 131 117 101 89 87 84 88 104 101 88 92 86 82 74 43 88 114 116 147 157 136 141 143 121 122 130 113 124 142 123 79 46 37 46 55 50 51 37 19 25 32 30 33 37
150 148 147 148 153 152 147 146 149 153 152 147 144 140 136 143 149 146 146 148 147 144 146 153 158 157 158 161 157 153 154 156 155 150 141 132 132 136 134 129 132 130 114 94 87 87 75 75 89 89 93 90 77 82 63 33 109 98 91 105 140 146 153 161 133 115 142 108 92 144 125 45 63 36 43 60 53 47 30 19 30 34 32 36 40
152 150 150 152 156 155 148 149 155 156 155 147 143 143 144 150 153 148 146 148 149 150 155 153 154 160 161 160 157 155 155 157 159 152 145 143 142 144 147 140 134 132 119 105 99 92 81 73 80 88 99 79 49 65 104 112 142 123 115 111 100 129 134 151 155 150 154 101 96 150 192 74 101 55 53 57 51 47 36 41 45 34 35 43 46
155 154 155 154 154 154 151 155 158 154 151 143 145 150 150 152 153 156 152 151 153 149 159 163 153 160 163 160 160 157 156 156 156 153 150 151 147 147 151 139 128 132 124 110 101 96 95 84 90 94 97 81 48 100 130 128 144 155 155 136 125 144 122 141 156 157 162 143 128 148 177 157 110 28 48 51 47 52 39 42 42 37 47 52 51
158 159 161 157 157 159 157 160 157 153 152 149 152 153 154 157 159 166 157 154 160 150 159 174 158 166 166 163 165 160 158 158 157 156 155 155 150 150 151 143 131 130 128 121 108 100 97 80 95 101 99 100 85 90 111 52 117 153 160 151 156 158 95 125 151 154 161 162 151 119 127 157 58 16 90 53 43 51 30 29 34 44 59 55 53
161 163 163 159 162 164 162 163 158 157 161 157 157 159 163 164 163 170 159 154 160 151 154 160 158 170 169 168 171 164 163 163 160 159 162 162 155 156 157 150 141 132 128 120 110 103 88 51 82 114 109 98 92 75 40 353 127 147 157 145 144 140 64 53 122 140 143 161 155 117 121 156 59 57 143 91 17 30 26 28 29 41 57 56 53
166 166 165 165 170 171 168 166 161 163 169 166 164 166 170 168 164 168 160 154 155 150 153 157 165 172 166 172 175 169 169 167 168 166 168 170 159 159 160 153 144 137 131 119 116 106 85 57 79 127 113 85 98 100 70 82 157 147 111 83 117 132 21 34 116 141 107 94 132 116 124 134 98 80 112 106 8 16 27 30 25 31 41 45 45
170 168 167 169 175 176 173 169 164 166 175 175 171 169 176 176 166 164 163 161 162 164 162 160 173 175 165 177 179 174 177 174 176 174 171 174 168 167 159 151 149 146 140 120 125 129 105 105 131 153 141 122 125 121 97 101 141 120 72 65 97 87 27 43 99 138 80 84 99 79 115 124 110 92 89 89 40 3 3 17 19 31 30 32 35
173 171 168 171 178 176 173 173 170 172 179 176 172 174 179 180 173 172 175 174 174 173 169 167 176 175 172 183 184 179 181 179 182 182 176 176 177 179 165 156 151 147 151 134 139 160 143 132 167 187 171 153 137 121 117 114 129 124 92 82 86 77 36 38 65 70 36 77 89 64 73 83 98 108 94 81 65 4 340 12 14 24 23 27 29
175 173 169 171 178 175 172 176 174 174 179 174 175 178 175 176 178 180 179 178 177 172 171 173 172 172 177 178 181 186 187 184 187 189 185 184 187 186 181 175 160 152 161 158 158 162 152 162 193 171 154 159 148 121 120 124 111 136 145 141 120 113 138 55 64 52 35 74 95 97 101 89 89 92 68 81 101 152 227 353 353 7 8 16 18
176 174 171 172 179 180 174 176 177 175 177 174 177 177 171 176 178 174 175 175 172 172 174 169 164 175 186 175 179 195 199 195 195 199 194 193 196 192 192 187 172 169 168 169 194 170 154 187 192 152 149 167 161 129 122 129 110 112 167 157 133 126 139 127 119 71 36 78 95 132 147 118 102 86 35 39 72 169 127 323 313 338 344 356 2
176 174 171 171 178 183 176 176 179 177 178 176 176 176 174 180 180 174 180 177 170 175 175 167 170 184 190 186 191 198 203 205 204 208 205 200 203 196 195 194 180 176 181 178 180 154 155 196 190 167 167 172 169 150 138 139 124 110 142 161 128 114 96 119 126 83 86 78 18 169 167 103 96 87 37 49 91 135 55 57 22 320 331 346 344
175 173 172 170 173 178 175 175 180 177 176 178 177 179 178 183 185 182 183 176 172 180 182 179 188 196 196 196 202 199 199 211 212 213 209 204 209 202 194 197 188 186 199 194 174 165 181 184 203 236 190 175 183 169 156 163 148 113 98 118 111 109 118 133 138 128 151 109 20 141 131 95 127 160 94 91 179 294 328 134 215 316 323 333 335